sat.trackr.live / text

‹ back to catalog

STARLINK-32557

NORAD 62127 · 2024-222P

PAYLOAD ACTIVE UNKNOWN

§ Identity

Operator
Country
US
Launch date
2024-11-27
Launch site
AFETR
Launch vehicle
Mass (kg)
RCS (m²)

Purposes: comms

External: N2YO · Heavens-Above · Gunter

§ Orbital elements

Epoch: 2026-05-25T03:37:51.779136Z

Period
94.27 min
Inclination
43.0014°
Eccentricity
0.0001752
Mean motion
15.27602945 rev/d
Perigee alt
481.8 km
Apogee alt
484.2 km
Semi-major
6,861.1 km
B*
1.1173e-3
RAAN
53.7632°
Arg perigee
267.0989°
Mean anomaly
92.9662°
Rev number
8,461

§ Raw data

STARLINK-325571 62127U 24222P   26145.15129374  .00030632  00000+0  11173-2 0  99982 62127  43.0014  53.7632 0001752 267.0989  92.9662 15.27602945 84618

JSON: /api/v1/satellites/62127 · /tle

For live sub-satellite position, see the globe view (requires WebGL).

§ Visibility from observer

Set your observer location to see the next 7 days of passes ≥ 10°. The values pass through the URL so the page stays shareable.

No JS? Fill the form by hand. The geolocation button needs JavaScript.